Flag for Uzbekistan Weather past 2 weeks in Tashkent, Uzbekistan

Now
100 °F

Passing clouds.


Feels Like: 95 °F
Forecast: 80 / 98 °F
Wind: 9 mph from North

Location: Tashkent

Current Time: Jul 4, 2015 at 6:48:30 PM

Latest Report: Jul 4, 2015 at 6:00 PM


Visibility: N/A

Pressure: 29.71 "Hg

Humidity: 11%

Dew point: 37 °F

Location of TashkentLocation

Historic Weather in Tashkent — Graph

°F

Tashkent temperature yesterday

Maximum temperature yesterday: 104 °F (at 12:30 PM)
Minimum temperature yesterday: 79 °F (at 3:00 AM)
Average temperature yesterday: 93 °F

Past Weeks' High & Low Weather Summary

 TemperatureHumidityPressure
High106 °F (Jun 30, 2:30 PM)57% (Jun 23, 8:30 PM)29.83 "Hg (Jun 23, 8:30 PM)
Low68 °F (Jun 27, 3:30 AM)7% (Jun 20, 3:30 PM)29.50 "Hg (Jun 23, 12:00 AM)
Average88 °F26%29.66 "Hg
* Reported Jun 19 5:00 PM — Jul 4 5:00 PM, Tashkent, Weather by CustomWeather, © 2015

Note: Actual official high and low records may vary slightly from our data, if they occured in-between our weather recording intervals... More about our weather records

Advertising

Tashkent weather history for previous 24 hours

 ConditionsComfort  
Time TempWeatherWind HumidityBarometerVisibility
5:00 PM
Sat, Jul 4
102 °FPassing clouds.10 mph10%29.71 "HgN/A
4:30 PM102 °FPassing clouds.13 mph11%29.74 "HgN/A
4:00 PM104 °FPassing clouds.10 mph9%29.74 "HgN/A
3:30 PM102 °FPassing clouds.13 mph10%29.74 "HgN/A
3:00 PM102 °FPassing clouds.12 mph10%29.74 "HgN/A
2:30 PM102 °FPassing clouds.12 mph9%29.74 "HgN/A
2:00 PM102 °FPassing clouds.8 mph10%29.74 "HgN/A
1:30 PM102 °FPassing clouds.9 mph10%29.77 "HgN/A
1:00 PM102 °FPassing clouds.8 mph9%29.77 "HgN/A
12:30 PM100 °FPassing clouds.8 mph11%29.77 "HgN/A
12:00 PM100 °FPassing clouds.8 mph11%29.77 "HgN/A
11:30 AM99 °FSunny.7 mph12%29.77 "Hg10 mi
11:00 AM99 °FSunny.6 mph13%29.77 "Hg10 mi
10:30 AM97 °FClear.5 mph17%29.80 "Hg4 mi
10:00 AM93 °FClear.3 mph23%29.80 "Hg4 mi
9:30 AM91 °FClear.5 mph26%29.80 "Hg4 mi
9:00 AM91 °FClear.3 mph24%29.80 "Hg4 mi
8:30 AM90 °FClear.2 mph26%29.80 "Hg4 mi
8:00 AM88 °FPassing clouds.5 mph27%29.80 "HgN/A
7:30 AM86 °FPassing clouds.5 mph29%29.80 "HgN/A
7:00 AM84 °FSunny.2 mph29%29.80 "Hg10 mi
6:30 AM81 °FPassing clouds.3 mph32%29.80 "HgN/A
6:00 AM79 °FSunny.5 mph32%29.77 "Hg10 mi
5:30 AM75 °FSunny.6 mph34%29.77 "Hg10 mi
5:00 AM81 °FSunny.9 mph26%29.77 "Hg10 mi
4:30 AM79 °FPassing clouds.7 mph28%29.77 "HgN/A
4:00 AM77 °FPassing clouds.7 mph30%29.77 "HgN/A
3:30 AM84 °FClear.6 mph22%29.77 "Hg10 mi
3:00 AM84 °FClear.8 mph20%29.77 "Hg10 mi
2:30 AM86 °FClear.8 mph19%29.77 "Hg10 mi
2:00 AM86 °FClear.10 mph19%29.77 "Hg10 mi
1:30 AM88 °FClear.14 mph17%29.77 "Hg10 mi
1:00 AM88 °FClear.13 mph17%29.77 "Hg10 mi
12:30 AM88 °FClear.14 mph17%29.77 "Hg10 mi
12:00 AM88 °FClear.16 mph16%29.77 "Hg10 mi
11:30 PM
Fri, Jul 3
88 °FClear.15 mph17%29.80 "Hg10 mi
11:00 PM90 °FClear.15 mph18%29.80 "Hg10 mi
10:30 PM90 °FClear.14 mph17%29.77 "Hg10 mi
10:00 PM91 °FClear.14 mph14%29.77 "Hg10 mi
9:30 PM93 °FClear.13 mph13%29.77 "Hg10 mi
9:00 PM95 °FClear.13 mph13%29.77 "Hg10 mi
8:30 PM97 °FClear.9 mph14%29.77 "Hg10 mi
8:00 PM99 °FPassing clouds.7 mph15%29.74 "HgN/A
7:30 PM99 °FSunny.8 mph15%29.74 "Hg10 mi
7:00 PM100 °FPassing clouds.9 mph13%29.74 "HgN/A
6:30 PM102 °FPassing clouds.10 mph12%29.74 "HgN/A
6:00 PM104 °FPassing clouds.8 mph12%29.74 "HgN/A
Weather by CustomWeather, © 2015

See weather overviewHow to use our weather pages